When you browse on this site, cookies collect data to enhance your experience and personalize the content and advertising you see.
Visit our Privacy Policy to learn more. By continuing to use the site, you agree to this use of cookies and data.
  • In Österreich
  • Länderverzeichnis
  • Für 7 Tage
  • Wassertemperatur
  • Satellitenkarten
  • Wetterkarte
  • News
  • Widgets
  • user-avatar
    Anmelden

    Stündliche Wetter Safaga

    Heute, 18 November, Sonntag

    Zeit Temperatur Niederschläge Wind Luftdruck Luftfeuchtigkeit
    00:00 +18°C° 0 mm 1 m/S 707 mmHg 54%
    01:00 +18°C° 0 mm 1 m/S 706 mmHg 53%
    02:00 +16°C° 0 mm 2 m/S 706 mmHg 50%
    03:00 +16°C° 0 mm 2 m/S 706 mmHg 46%
    04:00 +16°C° 0 mm 2 m/S 706 mmHg 43%
    05:00 +15°C° 0 mm 1 m/S 706 mmHg 40%
    06:00 +18°C° 0 mm 1 m/S 706 mmHg 34%
    07:00 +20°C° 0 mm 1 m/S 706 mmHg 29%
    08:00 +22°C° 0 mm 1 m/S 706 mmHg 23%
    09:00 +23°C° 0 mm 1 m/S 707 mmHg 22%
    10:00 +24°C° 0 mm 1 m/S 707 mmHg 21%
    11:00 +26°C° 0 mm 1 m/S 707 mmHg 20%
    12:00 +26°C° 0 mm 1 m/S 706 mmHg 20%
    13:00 +27°C° 0 mm 2 m/S 706 mmHg 21%
    14:00 +27°C° 0 mm 2 m/S 705 mmHg 21%
    15:00 +26°C° 0 mm 2 m/S 705 mmHg 23%
    16:00 +25°C° 0 mm 2 m/S 705 mmHg 25%
    17:00 +24°C° 0 mm 2 m/S 705 mmHg 27%
    18:00 +23°C° 0 mm 2 m/S 705 mmHg 29%
    19:00 +22°C° 0 mm 1 m/S 705 mmHg 30%
    20:00 +21°C° 0 mm 1 m/S 705 mmHg 31%
    21:00 +21°C° 0 mm 1 m/S 705 mmHg 31%
    22:00 +20°C° 0 mm 1 m/S 705 mmHg 31%
    23:00 +20°C° 0 mm 1 m/S 705 mmHg 30%

    Morgen, 19 November, Montag

    Zeit Temperatur Niederschläge Wind Luftdruck Luftfeuchtigkeit
    00:00 +19°C° 0 mm 1 m/S 705 mmHg 30%
    01:00 +19°C° 0 mm 1 m/S 705 mmHg 30%
    02:00 +18°C° 0 mm 1 m/S 704 mmHg 30%
    03:00 +18°C° 0 mm 1 m/S 704 mmHg 30%
    04:00 +16°C° 0 mm 1 m/S 704 mmHg 30%
    05:00 +16°C° 0 mm 1 m/S 704 mmHg 31%
    06:00 +18°C° 0 mm 1 m/S 705 mmHg 28%
    07:00 +20°C° 0 mm 1 m/S 705 mmHg 25%
    08:00 +22°C° 0 mm 1 m/S 706 mmHg 22%
    09:00 +23°C° 0 mm 2 m/S 706 mmHg 20%
    10:00 +24°C° 0 mm 2 m/S 707 mmHg 18%
    11:00 +26°C° 0 mm 3 m/S 707 mmHg 16%
    12:00 +26°C° 0 mm 3 m/S 707 mmHg 15%
    13:00 +27°C° 0 mm 3 m/S 707 mmHg 15%
    14:00 +27°C° 0 mm 3 m/S 706 mmHg 14%
    15:00 +26°C° 0 mm 3 m/S 706 mmHg 15%
    16:00 +25°C° 0 mm 3 m/S 706 mmHg 17%
    17:00 +24°C° 0 mm 3 m/S 706 mmHg 18%
    18:00 +23°C° 0 mm 2 m/S 706 mmHg 20%
    19:00 +21°C° 0 mm 2 m/S 706 mmHg 22%
    20:00 +20°C° 0 mm 2 m/S 706 mmHg 24%
    21:00 +19°C° 0 mm 2 m/S 706 mmHg 26%
    22:00 +18°C° 0 mm 2 m/S 706 mmHg 28%
    23:00 +19°C° 0 mm 1 m/S 706 mmHg 29%

    übermorgen, 20 November, Dienstag

    Zeit Temperatur Niederschläge Wind Luftdruck Luftfeuchtigkeit
    00:00 +18°C° 0 mm 1 m/S 706 mmHg 30%
    01:00 +18°C° 0 mm 1 m/S 706 mmHg 30%
    02:00 +16°C° 0 mm 1 m/S 706 mmHg 31%
    03:00 +16°C° 0 mm 1 m/S 706 mmHg 30%
    04:00 +15°C° 0 mm 1 m/S 706 mmHg 30%
    05:00 +15°C° 0 mm 1 m/S 706 mmHg 30%
    06:00 +18°C° 0 mm 1 m/S 707 mmHg 26%
    07:00 +20°C° 0 mm 1 m/S 707 mmHg 23%
    08:00 +22°C° 0 mm 1 m/S 708 mmHg 20%
    09:00 +23°C° 0 mm 2 m/S 708 mmHg 19%
    10:00 +25°C° 0 mm 2 m/S 708 mmHg 18%
    11:00 +26°C° 0 mm 2 m/S 709 mmHg 17%
    12:00 +27°C° 0 mm 3 m/S 708 mmHg 18%
    13:00 +27°C° 0 mm 3 m/S 708 mmHg 18%
    14:00 +28°C° 0 mm 3 m/S 707 mmHg 18%
    15:00 +26°C° 0 mm 3 m/S 707 mmHg 22%
    16:00 +25°C° 0 mm 3 m/S 707 mmHg 26%
    17:00 +24°C° 0 mm 3 m/S 707 mmHg 30%
    18:00 +23°C° 0 mm 2 m/S 707 mmHg 33%
    19:00 +21°C° 0 mm 2 m/S 707 mmHg 36%
    20:00 +21°C° 0 mm 2 m/S 707 mmHg 39%
    21:00 +20°C° 0 mm 2 m/S 707 mmHg 39%
    22:00 +20°C° 0 mm 2 m/S 707 mmHg 39%
    23:00 +21°C° 0 mm 1 m/S 707 mmHg 40%

    21 November, Mittwoch

    Zeit Temperatur Niederschläge Wind Luftdruck Luftfeuchtigkeit
    00:00 +20°C° 0 mm 1 m/S 707 mmHg 39%
    01:00 +20°C° 0 mm 1 m/S 706 mmHg 38%
    02:00 +19°C° 0 mm 1 m/S 706 mmHg 37%
    03:00 +19°C° 0 mm 1 m/S 706 mmHg 37%
    04:00 +19°C° 0 mm 1 m/S 705 mmHg 37%
    05:00 +18°C° 0 mm 1 m/S 705 mmHg 37%
    06:00 +20°C° 0 mm 1 m/S 706 mmHg 33%
    07:00 +21°C° 0 mm 1 m/S 706 mmHg 30%
    08:00 +23°C° 0 mm 1 m/S 707 mmHg 26%
    09:00 +24°C° 0 mm 1 m/S 707 mmHg 25%
    10:00 +26°C° 0 mm 2 m/S 707 mmHg 23%
    11:00 +27°C° 0 mm 2 m/S 707 mmHg 22%
    12:00 +28°C° 0 mm 2 m/S 706 mmHg 22%
    13:00 +28°C° 0 mm 2 m/S 706 mmHg 22%
    14:00 +29°C° 0 mm 2 m/S 705 mmHg 22%
    15:00 +27°C° 0 mm 2 m/S 705 mmHg 24%
    16:00 +26°C° 0 mm 2 m/S 705 mmHg 27%
    17:00 +25°C° 0 mm 2 m/S 705 mmHg 29%
    18:00 +24°C° 0 mm 2 m/S 705 mmHg 32%
    19:00 +23°C° 0 mm 2 m/S 705 mmHg 34%
    20:00 +22°C° 0 mm 1 m/S 706 mmHg 37%
    21:00 +22°C° 0 mm 1 m/S 705 mmHg 39%
    22:00 +21°C° 0 mm 1 m/S 705 mmHg 40%
    23:00 +21°C° 0 mm 1 m/S 705 mmHg 42%

    22 November, Donnerstag

    Zeit Temperatur Niederschläge Wind Luftdruck Luftfeuchtigkeit
    00:00 +20°C° 0 mm 1 m/S 705 mmHg 42%
    01:00 +20°C° 0 mm 1 m/S 704 mmHg 42%
    02:00 +19°C° 0 mm 1 m/S 704 mmHg 43%
    03:00 +19°C° 0 mm 1 m/S 704 mmHg 42%
    04:00 +19°C° 0 mm 1 m/S 704 mmHg 41%
    05:00 +19°C° 0 mm 1 m/S 704 mmHg 41%
    06:00 +20°C° 0 mm 1 m/S 704 mmHg 36%
    07:00 +22°C° 0 mm 1 m/S 705 mmHg 32%
    08:00 +23°C° 0 mm 1 m/S 706 mmHg 27%
    09:00 +24°C° 0 mm 1 m/S 706 mmHg 23%
    10:00 +26°C° 0 mm 2 m/S 706 mmHg 20%
    11:00 +27°C° 0 mm 2 m/S 706 mmHg 16%
    12:00 +28°C° 0 mm 2 m/S 705 mmHg 15%
    13:00 +28°C° 0 mm 2 m/S 705 mmHg 14%
    14:00 +29°C° 0 mm 2 m/S 704 mmHg 13%
    15:00 +27°C° 0 mm 2 m/S 704 mmHg 16%
    16:00 +26°C° 0 mm 2 m/S 704 mmHg 18%
    17:00 +25°C° 0 mm 1 m/S 704 mmHg 21%
    18:00 +24°C° 0 mm 1 m/S 704 mmHg 23%
    19:00 +23°C° 0 mm 1 m/S 704 mmHg 25%
    20:00 +22°C° 0 mm 1 m/S 705 mmHg 27%
    21:00 +22°C° 0 mm 1 m/S 705 mmHg 28%
    22:00 +21°C° 0 mm 1 m/S 704 mmHg 28%
    23:00 +20°C° 0 mm 2 m/S 704 mmHg 29%

    23 November, Freitag

    Zeit Temperatur Niederschläge Wind Luftdruck Luftfeuchtigkeit
    00:00 +19°C° 0 mm 2 m/S 704 mmHg 29%
    01:00 +19°C° 0 mm 2 m/S 704 mmHg 30%
    02:00 +18°C° 0 mm 2 m/S 703 mmHg 31%
    03:00 +18°C° 0 mm 2 m/S 704 mmHg 32%
    04:00 +17°C° 0 mm 2 m/S 704 mmHg 33%
    05:00 +17°C° 0 mm 2 m/S 704 mmHg 35%
    06:00 +18°C° 0 mm 3 m/S 704 mmHg 36%
    07:00 +18°C° 0 mm 3 m/S 705 mmHg 37%
    08:00 +19°C° 0 mm 3 m/S 706 mmHg 38%
    09:00 +20°C° 0 mm 4 m/S 706 mmHg 33%
    10:00 +22°C° 0 mm 5 m/S 706 mmHg 29%
    11:00 +23°C° 0 mm 5 m/S 706 mmHg 24%
    12:00 +23°C° 0 mm 5 m/S 705 mmHg 23%
    13:00 +25°C° 0 mm 5 m/S 705 mmHg 22%
    14:00 +25°C° 0 mm 5 m/S 705 mmHg 22%
    15:00 +23°C° 0 mm 5 m/S 705 mmHg 26%
    16:00 +22°C° 0 mm 5 m/S 705 mmHg 29%
    17:00 +21°C° 0 mm 5 m/S 705 mmHg 33%
    18:00 +20°C° 0 mm 5 m/S 705 mmHg 38%
    19:00 +20°C° 0 mm 4 m/S 705 mmHg 42%
    20:00 +19°C° 0 mm 4 m/S 705 mmHg 46%
    21:00 +18°C° 0 mm 3 m/S 705 mmHg 50%
    22:00 +17°C° 0 mm 3 m/S 705 mmHg 53%
    23:00 +17°C° 0 mm 3 m/S 705 mmHg 56%
    Mehr zeigen